Regional Weather Roundup
Issued by NWS Cleveland, OH

Home | Current Version | Previous Version | Text Only | Print | Product List | Glossary Off
Versions: 1 2 3 4 5 6 7 8 9 10 11 12 13 14 15 16 17 18 19 20 21 22 23 24 25 26 27 28 29 30 31 32 33 34 35 36 37 38 39 40 41 42 43 44 45 46 47 48 49 50

000
ASUS41 KCLE 271912
RWRCLE
OHIO REGIONAL WEATHER ROUNDUP
NATIONAL WEATHER SERVICE WILMINGTON, OH
300 PM EDT WED JUL 27 2016

NOTE: "FAIR" INDICATES FEW OR NO CLOUDS BELOW 12,000 FEET WITH NO
SIGNIFICANT WEATHER AND/OR OBSTRUCTIONS TO VISIBILITY.

OHZ001>008-015>018-024>027-034-035-043-044-272000-
   NORTHWEST OHIO

CITY           SKY/WX    TMP DP  RH WIND       PRES   REMARKS
DEFIANCE       FAIR      87  61  41 CALM      29.98F
FINDLAY        FAIR      89  56  32 VRB5      29.98F
TOLEDO EXPRESS FAIR      88  62  41 NW5       29.98F
TOLEDO EXEC    FAIR      89  61  38 W9        29.99F
LIMA           PTSUNNY   85  63  47 S3        30.00F
$$

OHZ009>014-019>023-028>033-038-089-272000-
   NORTHEAST OHIO

CITY           SKY/WX    TMP DP  RH WIND       PRES   REMARKS
CLE-HOPKINS    FAIR      90  57  32 N13       30.01F
CLE-LAKEFRONT  FAIR      85  66  53 NW10      29.98F
CUY CO. ARPT   MOSUNNY  N/A N/A N/A E9        30.00F
LORAIN-ELYRIA  FAIR      86  59  39 NE6       30.00F
ASHTABULA      FAIR      85  64  49 VRB5      30.01S
AKRON-CANTON   FAIR      88  57  34 NE7       30.00F
WOOSTER        FAIR      89  57  33 NE3       30.01F
MANSFIELD      FAIR      88  57  34 E5        30.01F
YOUNGSTOWN     FAIR      86  58  38 VRB3      30.00F
$$

OHZ042-051>053-060>062-070>072-077>081-272000-
  SOUTHWEST OHIO

CITY           SKY/WX    TMP DP  RH WIND       PRES   REMARKS
CINC-COVINGTON PTSUNNY   87  71  58 W7        30.00F HX  93
CINC-LUNKEN    PTSUNNY   86  72  62 W7        29.98S HX  92
HAMILTON       PTSUNNY   88  67  49 CALM      29.99F HX  91
DAYTON         FAIR      88  64  44 SW7       30.00F
WRIGHT-PAT AFB MOSUNNY   88  69  54 SW5       29.98F HX  92
DAYTON GENERAL FAIR      88  65  46 CALM      29.99F HX  90
WILMINGTON     FAIR      88  68  51 SW8       29.99F HX  91
$$

OHZ036-037-039>041-045>050-054>059-063>069-073>076-082>088-272000-
  CENTRAL AND SOUTHEAST OHIO

CITY           SKY/WX    TMP DP  RH WIND       PRES   REMARKS
COLUMBUS       FAIR      89  65  44 CALM      29.97F HX  91
OSU AIRPORT    FAIR      87  65  47 W8        29.98F
BOLTON FIELD   NOT AVBL
RICKENBACK AFB FAIR      88  69  52 W6        29.97F HX  92
NEWARK         PTSUNNY   86  66  51 W7        29.98F
MARION         FAIR      87  58  37 VRB3      30.00F
LANCASTER      FAIR      88  69  53 W3        29.99F HX  92
ZANESVILLE     PTSUNNY   91  68  46 VRB3      29.98F HX  95
NEW PHILLY     FAIR      94  59  31 NE8       29.98F HX  93
$$



USA.gov is the U.S. government's official web portal to all federal, state and local government web resources and services.